Precipitable_Water
1.11 1.21 1.22 1.17 1.10 1.05 0.93 0.83 0.80 0.78 0.77 0.74 0.77 0.84 0.94 1.10 1.11 1.14 1.23 1.24 1.20 1.18 1.19 1.25 1.20 1.12 1.07 1.01 0.93 0.89 0.82 0.78 0.77
1.14 1.15 1.12 1.08 1.03 0.96 0.89 0.85 0.85 0.83 0.82 0.85 0.96 1.04 1.10 1.14 1.15 1.13 1.14 1.15 1.12 1.10 1.13 1.14 1.10 1.05 1.00 0.94 0.88 0.81 0.81 0.83 0.84
1.11 1.09 1.06 1.02 0.94 0.88 0.87 0.89 0.99 0.92 0.88 0.91 1.02 1.11 1.17 1.19 1.14 1.15 1.13 1.04 0.98 1.00 0.98 1.00 1.01 0.97 0.92 0.89 0.84 0.81 0.84 0.85 0.82
0.97 1.01 1.01 0.98 0.90 0.95 0.84 1.03 1.01 0.97 0.89 0.95 1.05 1.10 1.18 1.14 1.13 1.10 1.07 1.02 0.92 0.91 0.92 0.91 0.94 0.89 0.84 0.82 0.81 0.83 0.87 0.86 0.86
0.93 0.92 0.93 0.94 0.88 0.96 1.00 0.99 0.92 0.90 0.95 0.99 1.08 1.09 1.09 1.11 1.08 1.07 1.04 0.99 0.95 0.86 0.85 0.85 0.83 0.83 0.80 0.83 0.84 0.86 0.87 0.88 0.84
0.96 0.93 0.91 0.96 0.90 0.98 0.96 0.99 0.89 0.81 0.90 1.01 1.01 1.02 1.03 1.01 1.01 1.02 0.98 0.95 0.90 0.88 0.87 0.84 0.82 0.81 0.83 0.85 0.85 0.84 0.82 0.79 0.78
0.93 0.90 0.96 0.99 0.91 0.99 1.14 1.02 0.89 0.81 0.79 0.92 0.97 1.00 1.00 0.97 0.92 0.92 0.92 0.92 0.90 0.86 0.86 0.85 0.85 0.85 0.83 0.82 0.81 0.81 0.78 0.78 0.77
0.92 0.95 0.98 0.95 0.99 1.08 1.11 0.95 0.87 0.84 0.79 0.73 0.84 0.98 0.98 0.93 0.88 0.86 0.87 0.90 0.88 0.87 0.85 0.86 0.86 0.87 0.86 0.83 0.81 0.82 0.81 0.80 0.79
0.86 0.93 0.91 1.01 1.03 0.97 0.94 0.87 0.88 0.85 0.83 0.77 0.74 0.83 0.86 0.93 0.89 0.84 0.88 0.88 0.87 0.87 0.90 0.89 0.89 0.90 0.89 0.87 0.83 0.82 0.83 0.84 0.78
0.83 0.88 0.89 0.98 1.03 1.09 0.95 0.86 0.86 0.82 0.78 0.75 0.67 0.69 0.77 0.82 0.88 0.81 0.82 0.88 0.91 0.94 0.95 0.96 0.92 0.89 0.87 0.85 0.86 0.84 0.79 0.73 0.69
0.83 0.85 0.90 0.91 0.97 1.04 0.97 0.85 0.83 0.77 0.77 0.72 0.67 0.68 0.74 0.79 0.86 0.85 0.87 0.90 0.93 0.96 0.95 0.93 0.90 0.87 0.88 0.85 0.80 0.75 0.71 0.70 0.69
0.83 0.82 0.79 0.90 0.90 0.89 0.88 0.85 0.81 0.78 0.77 0.71 0.68 0.69 0.74 0.79 0.85 0.89 0.92 0.92 0.92 0.98 0.97 0.93 0.90 0.91 0.86 0.80 0.75 0.71 0.70 0.69 0.70
0.77 0.82 0.79 0.82 0.86 0.82 0.82 0.81 0.76 0.74 0.72 0.68 0.68 0.70 0.75 0.79 0.90 0.96 0.95 0.96 0.98 1.03 1.03 0.96 0.92 0.90 0.85 0.78 0.74 0.71 0.70 0.70 0.70
0.85 0.80 0.81 0.81 0.76 0.75 0.78 0.78 0.76 0.73 0.71 0.68 0.69 0.72 0.75 0.80 0.85 0.89 0.93 0.98 1.01 1.03 0.99 0.92 0.91 0.87 0.83 0.78 0.74 0.71 0.70 0.69 0.68
0.74 0.74 0.75 0.77 0.69 0.68 0.75 0.75 0.79 0.77 0.71 0.66 0.66 0.72 0.77 0.81 0.81 0.86 0.89 0.93 0.99 0.99 0.94 0.92 0.87 0.84 0.81 0.76 0.71 0.70 0.68 0.68 0.66
0.65 0.63 0.63 0.67 0.64 0.64 0.72 0.75 0.73 0.71 0.72 0.64 0.63 0.68 0.75 0.78 0.82 0.88 0.88 0.88 0.90 0.93 0.91 0.90 0.87 0.82 0.78 0.71 0.67 0.67 0.66 0.65 0.63
0.59 0.56 0.54 0.56 0.59 0.62 0.65 0.72 0.67 0.69 0.70 0.58 0.56 0.49 0.58 0.68 0.76 0.81 0.83 0.85 0.89 0.88 0.89 0.89 0.84 0.79 0.73 0.69 0.65 0.63 0.62 0.60 0.60
0.55 0.50 0.50 0.51 0.55 0.55 0.61 0.67 0.67 0.60 0.66 0.68 0.56 0.48 0.45 0.55 0.66 0.70 0.72 0.75 0.79 0.81 0.82 0.81 0.79 0.77 0.73 0.68 0.63 0.59 0.56 0.56 0.57
0.58 0.52 0.52 0.53 0.54 0.56 0.59 0.64 0.65 0.67 0.59 0.67 0.66 0.68 0.65 0.52 0.52 0.65 0.66 0.68 0.68 0.71 0.73 0.72 0.72 0.72 0.69 0.64 0.60 0.57 0.55 0.55 0.57
0.56 0.56 0.56 0.55 0.56 0.57 0.59 0.60 0.63 0.66 0.64 0.60 0.61 0.65 0.66 0.68 0.61 0.55 0.59 0.67 0.68 0.69 0.70 0.68 0.65 0.66 0.65 0.63 0.60 0.59 0.57 0.57 0.59
Wind_Speed
15 13 12 11 9 8 7 8 8 8 8 8 8 8 7 8 8 8 9 9 10 10 10 11 10 10 9 9 8 8 8 8 8
15 14 13 11 10 9 9 9 9 9 9 9 8 7 6 8 8 7 7 7 7 7 8 8 8 8 7 7 7 7 7 8 8
17 15 14 13 11 10 11 10 10 10 9 9 8 8 8 8 8 8 7 7 7 7 7 6 6 6 6 6 6 6 7 7 7
17 16 15 14 13 12 12 11 11 10 10 10 9 8 8 8 7 7 6 6 6 6 6 6 6 5 5 5 6 6 6 6 7
17 17 16 15 14 14 13 13 12 10 10 11 10 8 7 7 6 6 5 5 6 6 6 6 5 5 5 5 5 5 5 6 6
17 16 17 16 16 15 14 13 12 11 10 11 10 8 6 6 6 5 5 5 6 6 6 6 5 5 4 4 4 4 4 4 5
18 18 18 17 17 16 16 14 12 11 11 11 10 8 7 6 6 6 6 6 6 5 5 5 4 4 3 2 2 3 4 5 6
19 19 18 17 18 16 16 15 13 12 11 11 11 10 8 8 7 7 7 6 6 5 5 4 3 2 2 1 2 3 5 6 7
20 19 19 18 18 17 17 15 14 13 12 11 11 11 10 9 8 8 8 7 7 6 5 4 3 2 1 1 3 4 5 7 9
21 21 20 19 18 17 18 16 15 14 13 12 11 12 11 10 10 9 9 8 8 7 6 5 4 3 3 3 4 6 7 9 10
23 22 21 20 20 19 19 17 16 15 14 13 12 12 12 12 11 11 10 10 9 8 7 6 5 5 5 6 7 8 10 11 12
24 24 21 22 22 20 20 19 18 17 16 15 14 14 14 13 13 13 12 11 11 10 9 8 7 7 8 8 9 11 12 13 15
26 25 25 23 23 22 21 20 19 18 17 16 16 15 15 15 14 14 13 13 12 12 11 11 10 10 11 11 12 14 15 16 17
26 26 25 24 24 24 23 22 22 20 19 18 18 17 17 17 16 16 15 15 15 15 15 14 14 14 15 15 16 17 18 19 21
28 27 27 26 25 25 25 24 23 22 21 20 20 19 19 20 19 19 19 18 18 18 18 18 18 18 18 19 20 20 22 23 24
30 29 29 28 28 27 27 26 25 24 24 22 22 22 22 22 22 22 22 21 22 22 21 22 21 22 22 22 23 24 25 26 27
31 31 30 30 30 29 29 28 27 27 26 25 24 24 25 26 26 25 25 25 25 26 26 25 25 25 26 26 27 27 28 28 29
33 33 32 32 32 31 31 31 30 29 30 29 26 25 26 26 28 29 29 29 28 29 29 29 29 29 29 29 30 31 31 31 32
35 34 34 34 34 33 33 33 33 32 32 32 32 30 27 26 26 29 31 32 32 32 32 32 33 33 33 33 33 33 34 34 34
36 37 36 36 36 36 36 36 36 36 35 35 33 35 33 31 30 29 31 33 35 35 35 35 35 36 36 35 35 35 35 35 36
Wind_Direction
192 190 188 187 186 180 173 165 159 153 146 138 133 129 124 118 117 111 107 105 104 100 98 98 99 96 93 89 83 74 68 63 60
194 193 192 190 187 186 178 170 163 157 152 146 140 135 134 129 124 119 120 112 109 109 108 105 99 95 92 85 77 70 66 66 62
198 195 194 193 191 185 178 172 168 163 159 154 148 136 133 130 126 122 117 114 109 115 113 111 106 98 91 83 78 73 70 65 58
197 197 196 195 192 184 178 174 168 165 165 161 154 144 139 137 135 130 126 119 114 117 120 116 111 103 96 87 84 76 70 58 50
196 197 197 195 191 185 179 175 173 170 167 166 162 154 153 147 144 141 139 135 129 125 124 121 117 107 98 93 81 72 60 49 38
196 197 193 191 189 187 185 181 179 177 175 174 175 176 169 165 166 161 153 145 140 132 127 123 118 113 103 95 77 56 40 26 16
197 194 191 192 190 190 187 186 185 186 186 188 188 190 186 182 175 172 168 160 153 147 141 135 128 120 111 89 55 28 12 359 349
196 194 194 193 192 192 192 192 195 194 195 197 203 199 196 196 193 188 183 178 173 168 162 159 155 142 127 64 5 352 345 338 333
199 198 197 197 198 199 198 200 202 203 205 206 208 207 207 203 198 195 193 193 191 190 188 188 193 202 240 303 321 326 329 330 328
202 201 201 203 202 202 202 207 208 209 209 209 209 210 211 210 205 207 205 204 205 205 205 209 218 236 262 288 304 315 320 321 321
205 205 206 208 208 209 209 213 213 213 213 215 215 214 213 214 215 213 214 214 216 217 220 226 237 251 265 282 293 303 310 314 317
209 209 213 212 213 214 214 215 216 218 218 220 220 221 221 221 220 219 220 221 222 227 232 238 249 257 270 281 290 298 303 309 312
212 213 216 217 217 217 218 219 220 222 223 224 225 225 225 224 222 223 226 229 232 234 238 246 254 261 273 281 288 294 298 302 306
215 217 219 220 220 221 222 223 224 225 226 227 229 229 229 228 229 230 232 236 239 242 246 252 259 265 274 281 286 291 295 299 302
219 221 223 223 224 224 225 226 227 229 229 231 233 234 234 234 236 238 240 244 245 248 253 257 263 267 273 279 285 289 292 295 299
222 224 225 226 227 228 228 229 230 231 232 233 236 239 239 240 242 243 245 248 250 254 256 260 265 269 273 278 283 286 289 292 295
225 227 228 229 230 231 231 231 233 234 234 237 239 243 244 245 246 247 249 251 253 256 259 263 266 270 274 278 281 284 287 290 292
229 229 230 231 232 233 234 234 235 237 238 240 243 246 248 247 248 249 252 254 256 259 261 264 268 272 275 277 280 283 285 288 290
232 233 233 234 235 236 237 238 239 240 241 243 244 249 251 249 252 252 254 256 258 261 263 266 268 271 274 277 279 281 283 286 288
236 236 237 238 239 240 240 241 242 243 245 245 247 248 250 252 255 257 257 258 260 263 265 267 269 271 273 276 278 280 282 284 287